Σχεδόν αίθριος με λίγα χαμηλά και λίγα cirrus
Ασθενής βροχή, πιθανή καταιγίδα
Με cirrus και πιθανές καταιγίδες
Ασθενής βροχή, πιθανή καταιγίδα
Ασθενής βροχή, πιθανή καταιγίδα
Με πιθανότητα καταιγιδοφόρων νεφών
Σχεδόν αίθριος με λίγα χαμηλά νέφη
(°C)
17°
17°
18°
18°
19°
19°
19°
19°
20°
20°
19°
19°
18°
18°
(°C)
17°
16°
17°
17°
16°
16°
16°
ΝΔ
ΝΝΔ
ΝΝΔ
ΝΔ
ΝΔ
ΝΔ
ΔΝΔ
(km/h)
9-30
15-38
16-39
16-37
16-34
16-35
14-30
(χιλιοστά)
0
0.1
0
0.2
0.1
0
0
(%)
23
65
12
25
36
34
26

Ανύψωση ήλιου

/ 59.4°
sun-icon
UV 5
05:08
20:50
Αύξων αμφίκυρτος (φάση σελήνης) (134°)
16:30
03:30

METAR για 50.1°Β 14.27°Α (LKPR)

Χρόνος Συνθήκες Θερμοκρασία/
Σημείο δρόσου
Άνεμος Ορατότητα Καιρός Νέφη Πίεση Αλλαγή Ανεπεξέργαστο
VFR 17°C / 12°C 180º variable 130º to 240º 5kt 9700m - Few Clouds 2400ft 1012 No Significant change LKPR 191000Z 18005KT 130V240 9999 FEW024 17/12 Q1012 NOSIG
VFR 16°C / 12°C 230º variable 140º to 300º 5kt 9700m - Few Clouds 1900ft 1012 No Significant change LKPR 190930Z 23005KT 140V300 9999 FEW019 16/12 Q1012 NOSIG
VFR 16°C / 11°C 4kt 9700m - Scattered Clouds 1800ft 1012 No Significant change LKPR 190900Z VRB04KT 9999 SCT018 16/11 Q1012 NOSIG
VFR 15°C / 11°C 210º variable 170º to 250º 5kt 9700m - Scattered Clouds 1400ft 1012 No Significant change LKPR 190830Z 21005KT 170V250 9999 SCT014 15/11 Q1012 NOSIG
MVFR 14°C / 11°C 220º 8kt 9700m - Broken Clouds 1400ft 1012 No Significant change LKPR 190800Z 22008KT 9999 BKN014 14/11 Q1012 NOSIG
VFR 14°C / 11°C 220º 9kt 9700m Light Rain 1.00mm precipitation Few Clouds 1300ft 1012 No Significant change LKPR 190730Z 22009KT 9999 -RA FEW013 14/11 Q1012 NOSIG
VFR 13°C / 11°C 230º 10kt 9700m - Few Clouds 1600ft 1012 No Significant change LKPR 190700Z 23010KT 9999 FEW016 13/11 Q1012 NOSIG
VFR 13°C / 11°C 230º 14kt 9700m - Clouds and Visibility OK 1012 No Significant change LKPR 190630Z 23014KT CAVOK 13/11 Q1012 NOSIG
VFR 12°C / 11°C 240º 11kt 9700m - Clouds and Visibility OK 1012 No Significant change LKPR 190600Z 24011KT CAVOK 12/11 Q1012 NOSIG
VFR 12°C / 10°C 240º 10kt 9700m - Clouds and Visibility OK 1012 No Significant change LKPR 190530Z 24010KT CAVOK 12/10 Q1012 NOSIG
VFR 12°C / 10°C 240º 6kt 9700m - Clouds and Visibility OK 1011 No Significant change LKPR 190500Z 24006KT CAVOK 12/10 Q1011 NOSIG
VFR 11°C / 10°C 230º 5kt 9700m - Clouds and Visibility OK 1011 No Significant change LKPR 190430Z 23005KT CAVOK 11/10 Q1011 NOSIG
VFR 10°C / 9°C 230º 6kt 9700m - Clouds and Visibility OK 1011 No Significant change LKPR 190400Z 23006KT CAVOK 10/09 Q1011 NOSIG
VFR 10°C / 9°C 210º 11kt 9700m - Clouds and Visibility OK 1011 No Significant change LKPR 190330Z 21011KT CAVOK 10/09 Q1011 NOSIG
VFR 9°C / 8°C 200º 9kt 9700m - Clouds and Visibility OK 1011 No Significant change LKPR 190300Z 20009KT CAVOK 09/08 Q1011 NOSIG
VFR 8°C / 8°C 200º 6kt 9700m - Clouds and Visibility OK 1011 No Significant change LKPR 190230Z 20006KT CAVOK 08/08 Q1011 NOSIG
VFR 9°C / 8°C 210º 6kt 9700m - Clouds and Visibility OK 1011 No Significant change LKPR 190200Z 21006KT CAVOK 09/08 Q1011 NOSIG
VFR 8°C / 8°C 210º 5kt 9700m - Clouds and Visibility OK 1011 No Significant change LKPR 190130Z 21005KT CAVOK 08/08 Q1011 NOSIG
VFR 10°C / 9°C 220º 4kt 9700m - Clouds and Visibility OK 1011 No Significant change LKPR 190100Z 22004KT CAVOK 10/09 Q1011 NOSIG
VFR 10°C / 9°C 220º 4kt 9700m - Clouds and Visibility OK 1011 No Significant change LKPR 190030Z 22004KT CAVOK 10/09 Q1011 NOSIG
VFR 10°C / 9°C 220º 4kt 9700m - Clouds and Visibility OK 1011 No Significant change LKPR 190000Z 22004KT CAVOK 10/09 Q1011 NOSIG
VFR 11°C / 10°C 250º 4kt 9700m - Clouds and Visibility OK 1011 No Significant change LKPR 182330Z 25004KT CAVOK 11/10 Q1011 NOSIG
VFR 12°C / 10°C 240º 4kt 9700m - Clouds and Visibility OK 1011 No Significant change LKPR 182300Z 24004KT CAVOK 12/10 Q1011 NOSIG
VFR 11°C / 10°C 230º 4kt 9700m - Clouds and Visibility OK 1011 No Significant change LKPR 182230Z 23004KT CAVOK 11/10 Q1011 NOSIG

VFR

17°C / 12°C

[Περισσότερο]
Άνεμος 180º variable 130º to 240º 5kt
Ορατότητα 9700m
Καιρός -
Νέφη Few Clouds 2400ft
Πίεση 1012
Αλλαγή No Significant change
Ανεπεξέργαστο LKPR 191000Z 18005KT 130V240 9999 FEW024 17/12 Q1012 NOSIG

VFR

16°C / 12°C

[Περισσότερο]
Άνεμος 230º variable 140º to 300º 5kt
Ορατότητα 9700m
Καιρός -
Νέφη Few Clouds 1900ft
Πίεση 1012
Αλλαγή No Significant change
Ανεπεξέργαστο LKPR 190930Z 23005KT 140V300 9999 FEW019 16/12 Q1012 NOSIG

VFR

16°C / 11°C

[Περισσότερο]
Άνεμος 4kt
Ορατότητα 9700m
Καιρός -
Νέφη Scattered Clouds 1800ft
Πίεση 1012
Αλλαγή No Significant change
Ανεπεξέργαστο LKPR 190900Z VRB04KT 9999 SCT018 16/11 Q1012 NOSIG

VFR

15°C / 11°C

[Περισσότερο]
Άνεμος 210º variable 170º to 250º 5kt
Ορατότητα 9700m
Καιρός -
Νέφη Scattered Clouds 1400ft
Πίεση 1012
Αλλαγή No Significant change
Ανεπεξέργαστο LKPR 190830Z 21005KT 170V250 9999 SCT014 15/11 Q1012 NOSIG

MVFR

14°C / 11°C

[Περισσότερο]
Άνεμος 220º 8kt
Ορατότητα 9700m
Καιρός -
Νέφη Broken Clouds 1400ft
Πίεση 1012
Αλλαγή No Significant change
Ανεπεξέργαστο LKPR 190800Z 22008KT 9999 BKN014 14/11 Q1012 NOSIG

VFR

14°C / 11°C

[Περισσότερο]
Άνεμος 220º 9kt
Ορατότητα 9700m
Καιρός Light Rain 1.00mm precipitation
Νέφη Few Clouds 1300ft
Πίεση 1012
Αλλαγή No Significant change
Ανεπεξέργαστο LKPR 190730Z 22009KT 9999 -RA FEW013 14/11 Q1012 NOSIG

VFR

13°C / 11°C

[Περισσότερο]
Άνεμος 230º 10kt
Ορατότητα 9700m
Καιρός -
Νέφη Few Clouds 1600ft
Πίεση 1012
Αλλαγή No Significant change
Ανεπεξέργαστο LKPR 190700Z 23010KT 9999 FEW016 13/11 Q1012 NOSIG

VFR

13°C / 11°C

[Περισσότερο]
Άνεμος 230º 14kt
Ορατότητα 9700m
Καιρός -
Νέφη Clouds and Visibility OK
Πίεση 1012
Αλλαγή No Significant change
Ανεπεξέργαστο LKPR 190630Z 23014KT CAVOK 13/11 Q1012 NOSIG

VFR

12°C / 11°C

[Περισσότερο]
Άνεμος 240º 11kt
Ορατότητα 9700m
Καιρός -
Νέφη Clouds and Visibility OK
Πίεση 1012
Αλλαγή No Significant change
Ανεπεξέργαστο LKPR 190600Z 24011KT CAVOK 12/11 Q1012 NOSIG

VFR

12°C / 10°C

[Περισσότερο]
Άνεμος 240º 10kt
Ορατότητα 9700m
Καιρός -
Νέφη Clouds and Visibility OK
Πίεση 1012
Αλλαγή No Significant change
Ανεπεξέργαστο LKPR 190530Z 24010KT CAVOK 12/10 Q1012 NOSIG

VFR

12°C / 10°C

[Περισσότερο]
Άνεμος 240º 6kt
Ορατότητα 9700m
Καιρός -
Νέφη Clouds and Visibility OK
Πίεση 1011
Αλλαγή No Significant change
Ανεπεξέργαστο LKPR 190500Z 24006KT CAVOK 12/10 Q1011 NOSIG

VFR

11°C / 10°C

[Περισσότερο]
Άνεμος 230º 5kt
Ορατότητα 9700m
Καιρός -
Νέφη Clouds and Visibility OK
Πίεση 1011
Αλλαγή No Significant change
Ανεπεξέργαστο LKPR 190430Z 23005KT CAVOK 11/10 Q1011 NOSIG

VFR

10°C / 9°C

[Περισσότερο]
Άνεμος 230º 6kt
Ορατότητα 9700m
Καιρός -
Νέφη Clouds and Visibility OK
Πίεση 1011
Αλλαγή No Significant change
Ανεπεξέργαστο LKPR 190400Z 23006KT CAVOK 10/09 Q1011 NOSIG

VFR

10°C / 9°C

[Περισσότερο]
Άνεμος 210º 11kt
Ορατότητα 9700m
Καιρός -
Νέφη Clouds and Visibility OK
Πίεση 1011
Αλλαγή No Significant change
Ανεπεξέργαστο LKPR 190330Z 21011KT CAVOK 10/09 Q1011 NOSIG

VFR

9°C / 8°C

[Περισσότερο]
Άνεμος 200º 9kt
Ορατότητα 9700m
Καιρός -
Νέφη Clouds and Visibility OK
Πίεση 1011
Αλλαγή No Significant change
Ανεπεξέργαστο LKPR 190300Z 20009KT CAVOK 09/08 Q1011 NOSIG

VFR

8°C / 8°C

[Περισσότερο]
Άνεμος 200º 6kt
Ορατότητα 9700m
Καιρός -
Νέφη Clouds and Visibility OK
Πίεση 1011
Αλλαγή No Significant change
Ανεπεξέργαστο LKPR 190230Z 20006KT CAVOK 08/08 Q1011 NOSIG

VFR

9°C / 8°C

[Περισσότερο]
Άνεμος 210º 6kt
Ορατότητα 9700m
Καιρός -
Νέφη Clouds and Visibility OK
Πίεση 1011
Αλλαγή No Significant change
Ανεπεξέργαστο LKPR 190200Z 21006KT CAVOK 09/08 Q1011 NOSIG

VFR

8°C / 8°C

[Περισσότερο]
Άνεμος 210º 5kt
Ορατότητα 9700m
Καιρός -
Νέφη Clouds and Visibility OK
Πίεση 1011
Αλλαγή No Significant change
Ανεπεξέργαστο LKPR 190130Z 21005KT CAVOK 08/08 Q1011 NOSIG

VFR

10°C / 9°C

[Περισσότερο]
Άνεμος 220º 4kt
Ορατότητα 9700m
Καιρός -
Νέφη Clouds and Visibility OK
Πίεση 1011
Αλλαγή No Significant change
Ανεπεξέργαστο LKPR 190100Z 22004KT CAVOK 10/09 Q1011 NOSIG

VFR

10°C / 9°C

[Περισσότερο]
Άνεμος 220º 4kt
Ορατότητα 9700m
Καιρός -
Νέφη Clouds and Visibility OK
Πίεση 1011
Αλλαγή No Significant change
Ανεπεξέργαστο LKPR 190030Z 22004KT CAVOK 10/09 Q1011 NOSIG

VFR

10°C / 9°C

[Περισσότερο]
Άνεμος 220º 4kt
Ορατότητα 9700m
Καιρός -
Νέφη Clouds and Visibility OK
Πίεση 1011
Αλλαγή No Significant change
Ανεπεξέργαστο LKPR 190000Z 22004KT CAVOK 10/09 Q1011 NOSIG

VFR

11°C / 10°C

[Περισσότερο]
Άνεμος 250º 4kt
Ορατότητα 9700m
Καιρός -
Νέφη Clouds and Visibility OK
Πίεση 1011
Αλλαγή No Significant change
Ανεπεξέργαστο LKPR 182330Z 25004KT CAVOK 11/10 Q1011 NOSIG

VFR

12°C / 10°C

[Περισσότερο]
Άνεμος 240º 4kt
Ορατότητα 9700m
Καιρός -
Νέφη Clouds and Visibility OK
Πίεση 1011
Αλλαγή No Significant change
Ανεπεξέργαστο LKPR 182300Z 24004KT CAVOK 12/10 Q1011 NOSIG

VFR

11°C / 10°C

[Περισσότερο]
Άνεμος 230º 4kt
Ορατότητα 9700m
Καιρός -
Νέφη Clouds and Visibility OK
Πίεση 1011
Αλλαγή No Significant change
Ανεπεξέργαστο LKPR 182230Z 23004KT CAVOK 11/10 Q1011 NOSIG

TAF για 50.1°Β 14.27°Α (LKPR)

From till


From till Wind 240º 7kt. Visibility 9700m. Scattered Clouds 4000ft.
Temporarly from till Wind 230º 16kt. Visibility 8000m. Showers Rain . Scattered Clouds 2500ft.
With 40% probability, Temporarly from till Wind 230º 16kt. Gust 30kt. Visibility 3000m. Thunderstorm Rain Thunderstorm Hail . Scattered Clouds 1700ft.
With 30% probability, Temporarly from till Visibility 2000m. Mist . Scattered Clouds 200ft.

Ανεπεξέργαστο: TAF LKPR 190800Z 1909/2015 24007KT 9999 SCT040 TEMPO 1910/1920 23016KT 8000 SHRA SCT025TCU PROB40 TEMPO 1915/1919 23016G30KT 3000 TSRAGR SCT017CB PROB30 TEMPO 2001/2005 2000 BR SCT002

Ραντάρ και πρόγνωση υετού μικρής διάρκειας για 50.1°Β 14.27°Α

Ψιλοβρέχει
Ελαφριά
Μέτρια
Έντονη
Πολύ έντονες
Χαλάζι

Ο δείκτης θέσης τοποθετείται στο 50.1°Β 14.27°Α. Αυτό το κινούμενο σχέδιο δείχνει το ραντάρ βροχόπτωσης για το επιλεγμένο χρονικό εύρος, καθώς και μια πρόγνωση 2h. Οι πορτοκαλί σταυροί υποδεικνύουν κεραυνούς. Δεδομένα που παρέχονται από nowcast.de (διαθέσιμα στις ΗΠΑ, την Ευρώπη, την Αυστραλία). Το ψιλόβροχο ή το ελαφρύ χιόνι μπορεί να είναι αόρατο για το ραντάρ. Η ένταση της βροχόπτωσης είναι χρωματικά κωδικοποιημένη και κυμαίνεται από τυρκουάζ έως κόκκινο.

Τρέχουσες εικόνες δορυφόρου και βροχής για 50.1°Β 14.27°Α

Η ένδειξη τοποθεσίας τοποθετείται στο 50.1°Β 14.27°Α. [Περισσότερο]

Οι δορυφορικές εικόνες σε πραγματικό χρόνο συνδυάζουν ορατό φως κατά τη διάρκεια της ημέρας με υπέρυθρη ακτινοβολία κατά τη διάρκεια της νύχτας. Κατά τη διάρκεια της νύχτας, η εικόνα δεν είναι σκοτεινή μιας και η υπέρυθρη ακτινοβολία μπορεί να εντοπίσει τις διαφορές στη θερμοκρασία. Δυστυχώς, είναι δύσκολο να ξεχωρίσουν οι χαμηλές νεφώσεις και η ομίχλη από τις θερμοκρασίες εδάφους και έτσι μπορεί να είναι σχετικά αόρατα κατά τη διάρκεια της νύχτας. Οι εικόνες από τον δορυφόρο Meteosat για την Ευρώπη ενημερώνονται σε πραγματικό χρόνο κάθε 5 λεπτά. Οι εικόνες από τους δορυφόρους GOES-16/GOES-17 (Βόρεια & Λατινική Αμερική) και Himawari (Ασία) ενημερώνονται κάθε 10 λεπτά.

Η βροχόπτωση εκτιμάται από ραντάρ και δορυφόρους. Οι εκτιμήσεις βροχόπτωσης από τους δορυφόρους είναι λιγότερο ακριβείς τη νύχτα απ' ό,τι κατά τη διάρκεια της ημέρας.

© 2024 meteoblue, NOAA Satellites GOES-16 and EUMETSAT. Δεδομένα αστραπών παρεχόμενα από nowcast.

Επιστροφή στην κορυφή
×
Γεια σου,
φαίνεται ότι χρησιμοποιείς ένα πρόγραμμα αποκλεισμού διαφημίσεων.

Η διαφήμιση είναι απαραίτητη για τη διατήρηση του δωρεάν ιστότοπού μας με μοναδική λεπτομέρεια και ακρίβεια.

Παρακαλούμε καταχωρήστε το www.meteoblue.com στη λευκή λίστα του ad blocker σας ή σκεφτείτε να αγοράσετε ένα από τα προϊόντα μας:

Έχετε ήδη συνδρομή;
Τότε παρακαλούμε σύνδεση.